IBE09FC LDSP-LEMD

Flight info

Callsign IBE09FC
Flight time N/A
Altitude 19000
Route TORPO M730 LISKO/N0454F340 DCT GEKBA/N0453F350 DCT VAMTU DCT KOLON DCT GANGU DCT PADKO DCT DIVKO DCT NILDU DCT NENDA N975 RAMON/N0460F310 N975 ADUXO
Aircraft A320/M-SDE3FGHIRWY/LB1

Departure

Time 2026-05-04 21:56
Airport Split Saint Jerome Airport (LDSP)

Arrival

Time N/A
Airport Adolfo Suárez Madrid–Barajas Airport (LEMD)
Time Latitude Longitude Altitude Speed Heading
2026-05-04 21:19 43.53828 16.30051 61 ft 0 kts 114°
2026-05-04 21:48 43.53831 16.30055 68 ft 1 kts 75°
2026-05-04 21:48 43.53836 16.30055 58 ft 1 kts 18°
2026-05-04 21:48 43.53839 16.30048 58 ft 1 kts 314°
2026-05-04 21:49 43.53840 16.30031 58 ft 4 kts 280°
2026-05-04 21:49 43.53845 16.29972 63 ft 7 kts 265°
2026-05-04 21:49 43.53821 16.29910 58 ft 10 kts 234°
2026-05-04 21:49 43.53767 16.29810 63 ft 17 kts 232°
2026-05-04 21:50 43.53699 16.29689 64 ft 0 kts 231°
2026-05-04 21:51 43.53687 16.29667 62 ft 6 kts 234°
2026-05-04 21:51 43.53684 16.29598 67 ft 8 kts 288°
2026-05-04 21:52 43.53696 16.29528 77 ft 6 kts 275°
2026-05-04 21:52 43.53692 16.29464 82 ft 11 kts 258°
2026-05-04 21:52 43.53642 16.29329 83 ft 20 kts 233°
2026-05-04 21:52 43.53554 16.29181 86 ft 19 kts 232°
2026-05-04 21:53 43.53471 16.29035 86 ft 19 kts 232°
2026-05-04 21:53 43.53390 16.28889 90 ft 19 kts 232°
2026-05-04 21:53 43.53306 16.28736 88 ft 21 kts 233°
2026-05-04 21:53 43.53236 16.28633 85 ft 9 kts 206°
2026-05-04 21:54 43.53208 16.28592 85 ft 4 kts 302°
2026-05-04 21:54 43.53224 16.28594 84 ft 1 kts 31°
2026-05-04 21:54 43.53225 16.28596 88 ft 0 kts 35°
2026-05-04 21:54 43.53231 16.28603 84 ft 2 kts 43°
2026-05-04 21:55 43.53255 16.28644 88 ft 15 kts 51°
2026-05-04 21:55 43.53476 16.29042 86 ft 88 kts 52°
2026-05-04 21:55 43.53975 16.29937 70 ft 145 kts 52°
2026-05-04 21:55 43.54647 16.31169 413 ft 162 kts 51°
2026-05-04 21:56 43.55311 16.32372 1176 ft 157 kts 56°
2026-05-04 21:56 43.55692 16.33809 1637 ft 169 kts 88°
2026-05-04 21:56 43.55580 16.34927 1844 ft 181 kts 112°
2026-05-04 21:56 43.54824 16.36300 2321 ft 188 kts 144°
2026-05-04 21:57 43.53590 16.36883 2875 ft 191 kts 173°
2026-05-04 21:57 43.52294 16.37269 3466 ft 192 kts 156°
2026-05-04 21:57 43.51090 16.38082 4003 ft 195 kts 154°
2026-05-04 21:57 43.49858 16.38958 4570 ft 198 kts 153°
2026-05-04 21:58 43.48649 16.39832 5092 ft 201 kts 154°
2026-05-04 21:58 43.47398 16.40718 5504 ft 204 kts 159°
2026-05-04 21:58 43.46028 16.40902 5509 ft 198 kts 195°
2026-05-04 21:58 43.44831 16.39916 5588 ft 214 kts 230°
2026-05-04 21:59 43.43901 16.38165 5797 ft 239 kts 233°
2026-05-04 21:59 43.42850 16.36252 6134 ft 261 kts 232°
2026-05-04 21:59 43.41713 16.34237 6789 ft 270 kts 231°
2026-05-04 21:59 43.40553 16.32190 7568 ft 273 kts 231°
2026-05-04 22:00 43.39379 16.30115 8348 ft 277 kts 231°
2026-05-04 22:00 43.38195 16.28011 9139 ft 280 kts 231°
2026-05-04 22:00 43.37005 16.25893 9926 ft 283 kts 231°
2026-05-04 22:00 43.35781 16.23710 10415 ft 298 kts 232°
2026-05-04 22:01 43.34692 16.21173 10599 ft 322 kts 249°
2026-05-04 22:01 43.34296 16.18040 10765 ft 346 kts 271°
2026-05-04 22:01 43.34663 16.14716 11223 ft 357 kts 279°
2026-05-04 22:01 43.35127 16.11349 11876 ft 360 kts 279°
2026-05-04 22:02 43.35588 16.07955 12565 ft 363 kts 279°
2026-05-04 22:02 43.36049 16.04529 13256 ft 366 kts 279°
2026-05-04 22:02 43.36509 16.01080 13934 ft 368 kts 279°
2026-05-04 22:02 43.36969 15.97608 14536 ft 371 kts 278°
2026-05-04 22:03 43.37431 15.94101 15104 ft 375 kts 278°
2026-05-04 22:03 43.37897 15.90559 15659 ft 378 kts 278°
2026-05-04 22:03 43.38367 15.86991 16207 ft 381 kts 278°
2026-05-04 22:03 43.38841 15.83386 16749 ft 385 kts 278°
2026-05-04 22:04 43.39316 15.79750 17284 ft 388 kts 278°
2026-05-04 22:04 43.39795 15.76086 17808 ft 391 kts 278°
2026-05-04 22:04 43.40279 15.72389 18325 ft 395 kts 278°
2026-05-04 22:04 43.40767 15.68657 18775 ft 398 kts 279°
2026-05-04 22:05 43.41255 15.64901 19232 ft 400 kts 279°
2026-05-04 22:05 43.41743 15.61130 19755 ft 400 kts 279°
2026-05-04 22:05 43.42226 15.57360 20286 ft 401 kts 279°
2026-05-04 22:05 43.42709 15.53575 20737 ft 403 kts 279°
2026-05-04 22:06 43.43196 15.49771 21170 ft 405 kts 279°
2026-05-04 22:06 43.43688 15.45939 21592 ft 408 kts 279°
2026-05-04 22:06 43.44183 15.42083 22008 ft 411 kts 279°
2026-05-04 22:06 43.44671 15.38251 22417 ft 413 kts 279°
2026-05-04 22:07 43.45168 15.34348 22823 ft 416 kts 279°
2026-05-04 22:07 43.45664 15.30414 23220 ft 419 kts 279°
2026-05-04 22:07 43.46161 15.26452 23622 ft 421 kts 279°
2026-05-04 22:07 43.46659 15.22477 23965 ft 423 kts 279°
2026-05-04 22:08 43.47158 15.18480 24297 ft 424 kts 279°
2026-05-04 22:08 43.47661 15.14473 24644 ft 426 kts 279°
2026-05-04 22:08 43.48165 15.10450 24987 ft 427 kts 279°
2026-05-04 22:08 43.48669 15.06410 25324 ft 428 kts 279°
2026-05-04 22:09 43.49171 15.02361 25665 ft 430 kts 279°
2026-05-04 22:09 43.49675 14.98296 26001 ft 431 kts 279°
2026-05-04 22:09 43.50178 14.94221 26317 ft 432 kts 279°
2026-05-04 22:09 43.50680 14.90137 26651 ft 433 kts 279°
2026-05-04 22:10 43.51187 14.86038 26976 ft 434 kts 279°
2026-05-04 22:10 43.51690 14.81940 27280 ft 435 kts 279°
2026-05-04 22:10 43.52192 14.77816 27587 ft 436 kts 279°
2026-05-04 22:10 43.52689 14.73692 27876 ft 438 kts 279°
2026-05-04 22:11 43.53188 14.69546 28160 ft 439 kts 279°
2026-05-04 22:11 43.53688 14.65388 28441 ft 440 kts 279°
2026-05-04 22:11 43.54187 14.61221 28713 ft 442 kts 279°
2026-05-04 22:11 43.54686 14.57040 29021 ft 442 kts 279°
2026-05-04 22:12 43.55180 14.52875 29421 ft 440 kts 279°
2026-05-04 22:12 43.55672 14.48716 29826 ft 438 kts 279°
2026-05-04 22:12 43.56163 14.44582 30218 ft 437 kts 279°
2026-05-04 22:12 43.56475 14.40427 30553 ft 435 kts 272°
2026-05-04 22:13 43.56581 14.36265 30912 ft 433 kts 272°
2026-05-04 22:13 43.56685 14.32126 31269 ft 431 kts 272°
2026-05-04 22:13 43.56785 14.28009 31630 ft 428 kts 272°
2026-05-04 22:13 43.56884 14.23913 31993 ft 426 kts 273°
2026-05-04 22:14 43.56983 14.19841 32364 ft 423 kts 273°
2026-05-04 22:14 43.57081 14.15809 32822 ft 418 kts 273°
2026-05-04 22:14 43.57335 14.11836 33241 ft 414 kts 280°
2026-05-04 22:14 43.57872 14.07952 33622 ft 411 kts 281°
2026-05-04 22:15 43.58411 14.04092 33989 ft 409 kts 281°
2026-05-04 22:15 43.58945 14.00258 34314 ft 407 kts 281°
2026-05-04 22:15 43.59471 13.96433 34592 ft 405 kts 281°
2026-05-04 22:15 43.59994 13.92612 34844 ft 405 kts 281°
2026-05-04 22:16 43.60514 13.88801 35040 ft 405 kts 281°
2026-05-04 22:16 43.61558 13.81157 35100 ft 405 kts 281°
2026-05-04 22:17 43.62595 13.73514 35100 ft 405 kts 281°
2026-05-04 22:17 43.63627 13.65882 35104 ft 405 kts 281°
2026-05-04 22:18 43.64659 13.58241 35108 ft 405 kts 281°
2026-05-04 22:18 43.65684 13.50595 35111 ft 405 kts 281°
2026-05-04 22:19 43.66699 13.42949 35118 ft 405 kts 280°
2026-05-04 22:19 43.67701 13.35352 35119 ft 405 kts 280°
2026-05-04 22:20 43.68704 13.27700 35119 ft 405 kts 280°
2026-05-04 22:20 43.69715 13.19995 35117 ft 405 kts 280°
2026-05-04 22:21 43.70717 13.12339 35108 ft 405 kts 279°
2026-05-04 22:21 43.71703 13.04730 35109 ft 404 kts 279°
2026-05-04 22:22 43.72688 12.97088 35107 ft 404 kts 279°
2026-05-04 22:22 43.73666 12.89441 35108 ft 404 kts 279°
2026-05-04 22:23 43.74646 12.81745 35106 ft 403 kts 279°
2026-05-04 22:23 43.75608 12.74112 35106 ft 403 kts 279°
2026-05-04 22:24 43.76564 12.66527 35105 ft 403 kts 279°
2026-05-04 22:24 43.77519 12.58892 35105 ft 403 kts 279°
2026-05-04 22:25 43.78472 12.51257 35102 ft 403 kts 279°
2026-05-04 22:25 43.79417 12.43625 35105 ft 403 kts 279°
2026-05-04 22:26 43.80357 12.35989 35120 ft 402 kts 278°
2026-05-04 22:26 43.81291 12.28359 35130 ft 402 kts 278°
2026-05-04 22:27 43.82222 12.20745 35136 ft 401 kts 278°
2026-05-04 22:27 43.83140 12.13139 35142 ft 400 kts 278°
2026-05-04 22:28 43.84052 12.05536 35136 ft 400 kts 278°
2026-05-04 22:28 43.84966 11.97939 35148 ft 400 kts 277°
2026-05-04 22:29 43.85872 11.90345 35148 ft 399 kts 277°
2026-05-04 22:29 43.86772 11.82753 35151 ft 399 kts 277°
2026-05-04 22:30 43.87660 11.75168 35148 ft 399 kts 277°
2026-05-04 22:30 43.88543 11.67580 35169 ft 399 kts 277°
2026-05-04 22:31 43.89427 11.59985 35168 ft 399 kts 277°
2026-05-04 22:31 43.90304 11.52384 35159 ft 399 kts 277°
2026-05-04 22:32 43.91178 11.44777 35160 ft 399 kts 277°
2026-05-04 22:32 43.92043 11.37169 35158 ft 399 kts 277°
2026-05-04 22:33 43.92905 11.29557 35192 ft 400 kts 276°
2026-05-04 22:33 43.93758 11.21975 35114 ft 401 kts 276°
2026-05-04 22:34 43.94618 11.14315 35111 ft 403 kts 276°
2026-05-04 22:34 43.95476 11.06623 35116 ft 404 kts 276°
2026-05-04 22:35 43.96323 10.98923 35130 ft 404 kts 276°
2026-05-04 22:35 43.97166 10.91206 35142 ft 404 kts 276°
2026-05-04 22:36 43.98013 10.83489 35148 ft 404 kts 276°
2026-05-04 22:36 43.98853 10.75766 35171 ft 405 kts 276°
2026-05-04 22:37 43.99688 10.68029 35172 ft 405 kts 276°
2026-05-04 22:37 44.00518 10.60291 35168 ft 405 kts 276°
2026-05-04 22:38 44.01337 10.52552 35161 ft 405 kts 276°
2026-05-04 22:38 44.02155 10.44795 35141 ft 406 kts 275°
2026-05-04 22:39 44.02968 10.37035 35127 ft 406 kts 275°
2026-05-04 22:39 44.03781 10.29274 35109 ft 406 kts 276°
2026-05-04 22:40 44.04590 10.21497 35106 ft 407 kts 275°
2026-05-04 22:40 44.05382 10.13709 35117 ft 407 kts 275°
2026-05-04 22:41 44.06175 10.05907 35106 ft 408 kts 275°
2026-05-04 22:41 44.06836 9.99410 35101 ft 408 kts 275°
2026-05-04 22:42 44.07628 9.91596 35109 ft 408 kts 275°
2026-05-04 22:42 44.08409 9.83776 35103 ft 408 kts 275°
2026-05-04 22:43 44.09188 9.75941 35103 ft 409 kts 275°
2026-05-04 22:43 44.09962 9.68143 35087 ft 410 kts 275°
2026-05-04 22:44 44.10735 9.60284 35076 ft 410 kts 274°
2026-05-04 22:44 44.11498 9.52407 35062 ft 411 kts 274°
2026-05-04 22:45 44.12253 9.44540 35073 ft 411 kts 274°
2026-05-04 22:45 44.13388 9.32697 35053 ft 412 kts 274°
2026-05-04 22:46 44.14126 9.24883 35052 ft 413 kts 274°
2026-05-04 22:46 44.14871 9.16966 35046 ft 413 kts 274°
2026-05-04 22:47 44.15609 9.09048 35057 ft 413 kts 274°
2026-05-04 22:47 44.16338 9.01138 35054 ft 414 kts 273°
2026-05-04 22:48 44.17073 8.93177 35049 ft 415 kts 274°